CAPE
0 0 0 0 0 0 0 0 2 1 11 12 7 3 0 0 0 0 0 0 0 0 0 0 0 0 0 0 0 0 0 0 0 0 0 0 0 0 0 0 0 0 0 0
0 0 0 0 0 0 0 0 0 0 4 0 0 0 0 0 0 0 0 0 0 0 0 0 0 0 0 0 0 0 0 0 0 0 0 0 0 0 0 0 0 0 0 0
0 0 0 0 0 0 0 0 0 1 0 0 0 0 0 0 0 0 0 0 1 1 3 9 0 0 0 0 0 0 0 0 0 0 0 0 0 0 0 0 0 0 0 0
0 0 0 0 0 0 0 0 0 0 0 0 0 0 0 0 0 0 0 0 0 0 0 0 1 0 0 0 0 0 0 0 0 0 0 0 0 0 0 0 0 0 0 0
0 0 0 0 0 0 0 0 0 0 0 0 0 0 1 0 0 0 0 0 0 0 0 0 0 0 0 0 0 0 0 0 0 0 0 0 0 0 0 0 0 0 0 0
0 0 0 0 0 0 0 0 0 0 0 0 0 0 0 0 0 0 0 0 0 0 0 0 0 1 0 0 0 0 0 0 0 0 0 0 1 2 0 2 1 2 0 0
0 0 0 0 0 0 0 0 0 0 0 0 0 0 0 0 0 0 0 0 0 0 0 0 1 0 0 1 3 0 0 0 0 0 0 0 0 3 1 2 2 1 0 0
0 0 0 0 0 0 0 0 0 0 0 0 0 0 0 0 0 0 0 0 0 0 0 2 0 1 0 0 2 2 3 1 0 1 1 0 0 0 2 3 1 2 1 2
0 0 0 0 0 0 0 0 0 0 0 0 0 0 0 0 0 0 0 0 1 1 2 4 2 2 1 1 0 1 1 1 1 0 0 0 2 1 0 1 3 1 1 2
0 0 0 0 0 0 0 0 0 0 0 0 0 0 0 0 0 0 0 0 2 1 1 1 1 1 1 1 1 1 0 0 1 1 0 1 3 1 1 2 2 2 1 2
0 0 0 0 0 0 0 0 0 0 0 0 0 0 0 0 0 0 1 1 1 1 0 1 1 1 1 1 1 0 0 0 0 1 1 1 0 0 0 0 1 2 2 2
0 0 0 0 0 0 0 0 0 0 0 0 0 0 0 0 0 2 0 0 1 1 2 1 2 2 0 0 0 0 0 0 3 2 2 2 2 1 1 0 0 0 0 0
0 0 0 0 0 0 0 0 0 0 0 0 0 0 0 1 1 2 3 4 5 2 2 2 3 2 0 0 1 2 1 1 2 0 2 2 2 3 3 1 4 0 1 0
0 0 0 0 0 0 0 0 0 0 0 0 0 0 0 1 0 0 1 1 1 2 2 1 2 3 1 1 3 0 0 0 1 2 2 2 3 2 2 2 2 2 1 0
0 0 0 0 0 0 0 0 0 0 0 0 0 0 0 0 0 1 1 0 0 1 2 3 2 3 2 5 3 1 1 0 1 2 1 1 1 1 2 2 2 2 1 0
0 0 0 0 0 0 0 0 0 0 0 0 0 0 0 0 0 0 1 1 1 2 2 0 1 2 1 2 2 1 0 0 0 1 1 2 1 2 1 1 3 3 2 3
0 0 0 0 0 0 0 0 0 0 0 0 0 0 0 0 0 0 0 2 3 1 0 0 2 0 0 4 4 1 1 1 1 1 3 2 1 2 2 1 1 2 3 1
0 0 0 0 0 0 0 0 0 0 0 0 0 0 0 0 0 0 1 2 0 0 0 1 1 0 0 6 5 1 1 1 1 1 1 1 2 1 1 2 2 2 1 0
0 0 0 0 0 0 0 0 0 0 0 0 0 0 0 0 0 0 0 1 1 1 0 0 0 0 2 1 2 0 1 1 1 1 1 1 2 1 1 1 1 1 1 2
0 0 0 0 0 0 0 0 0 0 0 0 0 0 0 0 0 0 0 0 0 0 0 1 1 2 2 2 3 0 2 0 2 1 1 1 2 1 1 1 1 1 0 1
0 0 0 0 0 0 0 0 0 0 0 0 0 0 0 0 0 0 0 17 1 2 1 0 2 5 6 3 1 4 0 1 1 1 2 2 1 1 1 0 0 0 0 0
0 0 0 0 0 0 0 0 0 0 0 0 0 0 0 0 0 1 0 1 1 0 0 0 3 2 0 0 6 2 1 3 0 1 1 0 1 0 0 0 0 0 0 0
0 0 0 0 0 0 0 0 0 0 0 0 0 0 0 0 2 2 1 3 6 2 0 1 2 0 0 1 4 0 0 0 0 1 0 0 0 0 0 0 0 1 0 0
0 0 0 0 0 0 0 0 0 0 0 0 0 0 0 0 0 0 0 1 0 1 0 0 0 0 0 0 1 0 0 0 0 0 0 0 0 0 0 0 0 0 0 0
0 0 0 0 0 0 0 0 0 0 0 0 0 0 0 0 0 0 1 0 0 0 1 1 1 0 0 0 0 0 0 0 0 0 0 0 0 0 0 0 0 0 0 0
0 0 0 0 0 0 0 0 0 0 0 0 0 0 0 0 0 0 1 1 1 0 0 3 1 0 0 1 0 0 1 2 0 0 0 0 0 0 0 0 0 0 0 0
0 0 0 0 0 0 0 0 0 0 0 0 0 0 0 0 0 0 0 0 1 0 0 1 1 0 1 0 1 3 4 3 1 1 0 0 0 0 1 0 0 0 0 0
CIN
-0 -0 -0 -0 -0 -0 -0 -0 -2 -1 -1 -1 -3 -1 -0 -0 -0 -0 -0 -0 -0 -0 -0 -0 -0 -0 -0 -0 -0 -0 -0 -0 -0 -0 -0 -0 -0 -0 -0 -0 -0 -0 -0 -0
-0 -0 -0 -0 -0 -0 -0 -0 -0 -0 -1 -0 -0 -0 -0 -0 -0 -0 -0 -0 -0 -0 -0 -0 -0 -0 -0 -0 -0 -0 -0 -0 -0 -0 -0 -0 -0 -0 -0 -0 -0 -0 -0 -0
-0 -0 -0 -0 -0 -0 -0 -0 -0 -2 -0 -0 -0 -0 -0 -0 -0 -0 -0 -0 -1 -0 -1 -2 -0 -0 -0 -0 -0 -0 -0 -0 -0 -0 -0 -0 -0 -0 -0 -0 -0 -0 -0 -0
-0 -0 -0 -0 -0 -0 -0 -0 -0 -0 -0 -0 -0 -0 -0 -0 -0 -0 -0 -0 -0 -0 -0 -0 -2 -0 -0 -0 -0 -0 -0 -0 -0 -0 -0 -0 -0 -0 -0 -0 -0 -0 -0 -0
-0 -0 -0 -0 -0 -0 -0 -0 -0 -0 -0 -0 -0 -0 -1 -0 -0 -0 -0 -0 -0 -0 -0 -0 -0 -0 -0 -0 -0 -0 -0 -0 -0 -0 -0 -0 -0 -0 -0 -0 -0 -0 -0 -0
-0 -0 -0 -0 -0 -0 -0 -0 -0 -0 -0 -0 -0 -0 -0 -0 -0 -0 -0 -0 -0 -0 -0 -0 -0 -2 -2 -0 -0 -0 -0 -0 -0 -0 -0 -0 -0 -0 -0 -0 -0 -0 -0 -0
-0 -0 -0 -0 -0 -0 -0 -0 -0 -0 -0 -0 -0 -0 -0 -0 -0 -0 -0 -0 -0 -0 -0 -0 -1 -2 -1 -1 -0 -0 -0 -0 -0 -0 -0 -0 -1 -1 -1 -1 -1 -1 -0 -0
-0 -0 -0 -0 -0 -0 -0 -0 -0 -0 -0 -0 -0 -0 -0 -0 -0 -0 -0 -0 -0 -0 -1 -2 -0 -1 -0 -1 -1 -1 -0 -0 -1 -1 -0 -0 -0 -1 -0 -0 -0 -0 -0 -0
-0 -0 -0 -0 -0 -0 -0 -0 -0 -0 -0 -0 -0 -0 -0 -0 -0 -0 -0 -1 -1 -0 -0 -1 -1 -1 -1 -1 -1 -2 -1 -1 -1 -0 -0 -0 -0 -0 -0 -0 -0 -0 -0 -0
-0 -0 -0 -0 -0 -0 -0 -0 -0 -0 -0 -0 -0 -0 -0 -0 -0 -0 -0 -1 -0 -0 -0 -0 -1 -2 -1 -2 -1 -1 -0 -0 -1 -0 -1 -1 -0 -0 -0 -0 -0 -0 -0 -0
-0 -0 -0 -0 -0 -0 -0 -0 -0 -0 -0 -0 -0 -0 -0 -0 -0 -0 -0 -1 -1 -1 -0 -0 -0 -1 -1 -1 -0 -0 -0 -0 -0 -0 -0 -0 -0 -0 -0 -0 -0 -0 -0 -0
-0 -0 -0 -0 -0 -0 -0 -0 -0 -0 -0 -0 -0 -0 -0 -0 -0 -0 -1 -1 -0 -0 -0 -0 -0 -0 -1 -1 -1 -1 -0 -0 -0 -0 -0 -0 -0 -0 -0 -1 -3 -0 -0 -0
-0 -0 -0 -0 -0 -0 -0 -0 -0 -0 -0 -0 -0 -0 -0 -0 -0 -0 -0 -0 -0 -0 -0 -0 -0 -0 -2 -1 -1 -1 -1 -1 -0 -0 -0 -0 -0 -0 -0 -0 -0 -2 -3 -6
-0 -0 -0 -0 -0 -0 -0 -0 -0 -0 -0 -0 -0 -0 -0 -0 -0 -0 -0 -0 -0 -0 -0 -0 -0 -0 -1 -0 -1 -0 -0 -1 -0 -0 -0 -0 -0 -0 -1 -0 -0 -0 -0 -0
-0 -0 -0 -0 -0 -0 -0 -0 -0 -0 -0 -0 -0 -0 -0 -0 -0 -0 -1 -0 -0 -0 -0 -0 -0 -0 -1 -0 -0 -1 -0 -0 -0 -0 -0 -0 -0 -0 -0 -0 -0 -0 -1 -0
-0 -0 -0 -0 -0 -0 -0 -0 -0 -0 -0 -0 -0 -0 -0 -0 -0 -0 -1 -1 -0 -0 -0 -0 -0 -1 -0 -0 -1 -0 -0 -0 -0 -0 -0 -0 -0 -0 -0 -0 -0 -0 -0 -0
-0 -0 -0 -0 -0 -0 -0 -0 -0 -0 -0 -0 -0 -0 -0 -1 -0 -0 -0 -1 -3 -14 -2 -0 -0 -0 -2 -1 -0 -0 -0 -0 -0 -0 -0 -0 -1 -0 -0 -0 -0 -1 -0 -0
-0 -0 -0 -0 -0 -0 -0 -0 -0 -0 -0 -0 -0 -0 -0 -0 -0 -0 -5 -10 -17 -0 -0 -4 -2 -0 -0 -0 -0 -0 -0 -0 -0 -0 -0 -0 -0 -0 -0 -0 -0 -0 -0 -0
-0 -0 -0 -0 -0 -0 -0 -0 -0 -0 -0 -0 -0 -0 -0 -0 -0 -0 -0 -20 -14 -0 -0 -3 -0 -0 -1 -2 -2 -2 -0 -0 -0 -0 -2 -0 -0 -0 -0 -0 -0 -0 -0 -0
-0 -0 -0 -0 -0 -0 -0 -0 -0 -0 -0 -0 -0 -0 -0 -0 -0 -0 -31 -0 -2 -0 -0 -3 -0 -1 -0 -0 -1 -1 -0 -1 -0 -0 -0 -0 -0 -0 -0 -0 -0 -0 -0 -0
-0 -0 -0 -0 -0 -0 -0 -0 -0 -0 -0 -0 -0 -0 -0 -0 -0 -0 -0 -0 -2 -0 -0 -2 -3 -1 -0 -0 -1 -0 -1 -1 -0 -1 -0 -0 -0 -0 -0 -0 -0 -0 -0 -0
-0 -0 -0 -0 -0 -0 -0 -0 -0 -0 -0 -0 -0 -0 -0 -0 -0 -0 -0 -0 -0 -0 -0 -0 -3 -0 -0 -0 -0 -0 -1 -0 -0 -0 -0 -0 -0 -0 -0 -0 -0 -0 -0 -0
-0 -0 -0 -0 -0 -0 -0 -0 -0 -0 -0 -0 -0 -0 -0 -0 -0 -1 -2 -1 -1 -0 -0 -0 -1 -0 -0 -1 -0 -4 -0 -1 -0 -0 -0 -0 -0 -0 -0 -0 -0 -0 -0 -0
-0 -0 -0 -0 -0 -0 -0 -0 -0 -0 -0 -0 -0 -0 -0 -0 -0 -1 -0 -8 -0 -0 -0 -0 -0 -0 -0 -0 -5 -1 -0 -2 -0 -0 -0 -0 -0 -0 -0 -0 -0 -0 -0 -0
-0 -0 -0 -0 -0 -0 -0 -0 -0 -0 -0 -0 -0 -0 -0 -0 -0 -0 -0 -0 -0 -0 -2 -4 -0 -0 -0 -0 -0 -0 -0 -2 -0 -0 -0 -0 -0 -0 -0 -0 -0 -0 -0 -0
-0 -0 -0 -0 -0 -0 -0 -0 -0 -0 -0 -0 -0 -0 -0 -0 -0 -0 -0 -0 -0 -0 -0 -1 -0 -0 -0 -0 -0 -0 -0 -0 -1 -0 -0 -0 -0 -0 -0 -0 -0 -0 -0 -0
-0 -0 -0 -0 -0 -0 -0 -0 -0 -0 -0 -0 -0 -0 -0 -0 -0 -0 -0 -0 -0 -0 -0 -0 -0 -0 -0 -0 -0 -0 -0 -0 -0 -0 -0 -0 -0 -0 -0 -0 -0 -0 -0 -0
Wind_Speed
15 14 13 13 14 16 17 17 17 19 17 14 13 24 26 27 27 27 28 29 29 28 28 28 27 27 26 28 29 30 29 29 29 28 28 30 30 31 30 31 30 29 29 28
15 15 13 13 13 15 18 20 19 18 17 15 12 11 20 30 30 30 31 32 32 31 31 31 31 31 30 31 31 31 33 33 33 33 32 33 32 33 34 34 34 33 33 33
16 14 13 12 9 12 14 14 14 13 16 13 11 10 8 26 31 32 34 33 33 33 33 33 33 34 34 35 35 35 35 34 34 35 36 37 36 35 36 38 37 37 37 36
14 13 15 15 12 11 11 12 12 13 13 14 13 10 11 18 21 31 33 34 34 35 36 36 36 37 39 39 39 38 37 36 36 36 36 37 38 39 40 40 40 41 41 41
13 9 16 9 5 8 9 9 9 11 12 14 15 14 15 21 22 19 21 33 36 36 38 38 38 39 39 39 37 37 36 36 37 38 38 38 38 39 39 40 40 41 42 43
12 14 15 17 10 9 11 9 7 9 13 15 16 15 20 21 20 19 19 21 29 39 39 38 38 37 38 37 36 36 37 37 37 37 38 39 40 41 40 40 40 40 41 41
8 13 14 9 9 10 12 16 12 11 14 14 15 16 17 17 18 19 20 21 25 31 36 37 37 37 36 35 35 35 35 36 36 36 37 37 39 39 41 42 43 44 45 45
7 14 14 7 8 6 12 11 12 13 13 14 15 17 18 19 20 21 22 23 24 28 33 34 33 35 35 35 35 35 35 36 36 37 38 38 40 41 40 41 42 44 44 44
7 13 13 7 8 4 10 11 12 13 13 13 16 19 20 20 21 22 24 23 23 26 30 32 32 33 34 35 36 36 36 38 39 39 39 38 41 41 42 42 43 44 44 45
12 9 6 3 3 4 8 9 11 10 11 14 17 19 20 21 21 22 24 22 22 23 30 32 32 33 34 35 35 36 38 39 39 38 40 39 39 40 41 41 42 42 44 45
11 11 11 5 2 0 5 8 9 10 11 14 16 18 20 22 22 23 23 22 20 22 28 32 32 34 35 36 36 38 39 40 41 40 42 41 40 40 40 39 40 44 44 45
15 10 6 13 3 2 2 5 6 8 11 14 16 18 21 22 23 23 23 22 20 20 25 31 32 35 36 37 38 40 41 42 41 42 41 42 42 44 39 40 39 39 43 43
10 10 10 8 8 6 4 5 6 9 11 13 16 18 21 23 24 24 24 22 20 20 22 30 32 35 37 38 40 41 42 43 43 42 40 42 44 44 46 42 39 40 41 41
8 6 8 4 6 4 5 5 7 9 11 13 16 18 21 23 25 26 26 25 24 21 21 28 34 36 38 39 42 42 42 43 42 40 42 43 45 45 45 46 47 45 40 41
7 3 8 3 5 5 4 5 6 9 12 14 16 18 21 23 25 27 27 27 27 24 22 25 34 36 38 40 41 42 42 39 38 38 38 43 42 41 43 44 46 47 45 43
6 4 4 2 2 3 3 4 7 10 12 14 17 18 21 22 24 28 30 30 28 27 25 25 29 35 39 41 41 41 40 38 34 35 35 37 38 40 43 44 45 44 42 41
5 4 4 4 3 2 2 5 8 11 13 15 17 20 22 23 26 30 30 30 28 26 25 24 26 36 39 40 40 41 41 41 36 33 34 35 38 39 41 40 39 40 35 36
6 6 5 4 3 2 3 6 9 12 14 17 20 22 22 24 25 27 27 28 28 28 26 24 24 34 38 38 40 41 41 41 37 36 34 34 35 39 38 37 38 38 36 35
6 9 4 4 1 1 4 8 11 14 18 20 22 22 24 26 25 25 26 27 28 29 28 27 27 34 38 36 40 41 40 41 38 35 34 33 34 38 39 36 35 35 35 35
5 4 3 2 2 4 7 10 13 17 21 22 23 26 27 27 27 26 26 25 25 26 27 28 30 34 38 38 39 40 39 41 39 35 34 33 33 39 36 34 33 35 35 35
3 0 1 2 4 7 10 12 15 19 22 24 25 27 28 28 28 27 27 26 28 27 28 30 30 34 38 39 40 38 39 40 39 35 35 31 34 37 31 22 26 28 32 32
2 1 1 4 6 9 12 14 17 21 23 25 27 28 28 28 28 28 26 26 26 27 27 28 30 34 38 40 38 38 38 39 38 33 33 30 36 28 11 11 4 19 28 31
1 1 3 6 9 11 12 16 20 23 26 27 28 28 26 27 28 29 30 27 28 27 28 29 29 35 37 37 37 37 37 37 38 35 36 29 30 22 15 3 6 12 24 25
2 4 6 8 10 13 16 20 23 24 25 25 25 25 27 28 28 27 27 29 26 25 26 29 30 34 36 36 36 36 36 36 36 36 36 14 28 25 16 17 31 30 29 27
4 6 8 11 14 17 20 22 23 23 24 25 26 27 28 28 28 28 28 28 27 25 26 29 28 31 33 35 35 35 34 34 35 34 34 21 26 23 19 16 27 28 27 24
6 9 12 15 17 19 22 22 23 23 24 26 27 28 29 30 30 29 28 27 27 26 27 30 29 29 33 34 35 34 33 33 32 32 31 26 25 23 20 18 16 15 5 6
11 13 15 17 18 20 21 21 22 24 25 26 28 30 30 30 30 30 29 28 27 29 30 30 30 29 32 33 33 32 31 31 30 29 28 26 24 23 22 20 6 13 5 6
Wind_Direction
36 44 60 64 65 67 75 81 79 82 82 86 65 337 337 339 334 329 324 330 326 310 313 311 310 316 315 312 310 310 310 308 305 305 304 300 298 297 295 294 296 295 296 297
31 38 50 54 63 70 65 72 74 78 74 77 78 65 16 328 330 326 320 324 323 320 308 310 311 308 310 311 309 308 304 302 300 301 301 300 299 296 294 292 292 293 294 293
18 30 33 36 78 74 64 71 72 69 59 64 58 53 44 359 339 326 323 326 324 322 317 314 310 312 306 305 304 304 303 303 301 299 296 295 296 296 294 290 289 290 291 291
16 32 12 21 63 63 61 58 63 56 56 49 43 38 39 37 24 345 332 324 322 319 316 312 311 309 311 307 306 301 300 297 298 301 300 298 295 293 292 291 290 289 288 288
10 19 4 26 77 77 63 48 66 51 46 38 32 29 44 28 21 19 10 337 321 317 315 313 312 312 312 308 310 309 304 304 303 298 294 295 297 295 295 293 292 291 290 288
5 358 4 6 57 75 47 21 76 52 33 26 29 28 24 18 16 11 5 359 346 322 315 313 314 314 310 310 310 308 308 310 310 307 303 300 295 291 292 292 294 290 292 291
355 347 356 26 73 68 14 12 58 39 23 25 23 21 16 17 12 9 5 0 354 343 328 321 319 317 313 312 311 313 315 313 312 312 310 308 305 301 299 294 290 287 287 286
348 341 346 83 76 35 23 41 30 23 23 21 22 18 17 14 12 10 6 3 359 349 337 331 328 322 318 316 316 317 315 311 313 314 312 311 308 305 303 300 298 294 295 292
351 348 6 105 25 79 25 21 17 17 24 25 17 13 12 13 12 11 9 7 7 359 344 337 334 329 321 317 315 316 315 313 311 312 312 311 305 305 303 301 299 297 295 293
336 331 357 36 50 43 14 14 14 24 25 19 12 13 12 12 13 11 11 11 12 7 348 339 336 328 323 320 316 314 313 314 316 315 314 313 311 308 306 303 300 298 296 294
319 327 346 345 219 328 3 9 15 25 21 15 13 13 11 10 12 12 12 13 14 8 354 344 341 328 323 320 318 315 317 319 319 319 316 315 314 311 309 307 303 299 297 296
319 328 325 342 355 195 350 9 23 24 19 17 14 12 10 9 10 10 9 10 8 4 354 342 338 330 323 322 321 319 320 322 323 322 321 318 315 311 313 308 306 302 299 298
305 337 334 351 14 38 38 30 29 19 19 14 11 11 9 8 7 5 5 4 3 359 353 341 334 329 319 314 313 311 314 317 322 324 326 322 317 314 309 310 308 305 300 298
313 326 330 360 347 8 17 34 25 20 15 10 8 8 7 5 3 2 1 1 359 356 353 344 332 324 318 317 313 316 318 321 326 328 324 321 316 312 311 306 303 305 307 303
304 293 334 336 354 14 35 31 15 6 4 3 3 2 2 1 1 360 358 358 358 357 356 351 335 328 321 316 316 317 321 331 335 333 332 323 326 326 316 312 305 301 302 304
294 302 316 343 1 20 21 10 356 354 358 358 357 358 358 358 357 355 355 355 356 356 355 352 343 333 325 317 316 321 327 334 340 339 338 336 335 329 320 313 307 302 300 301
293 277 266 256 309 338 346 353 349 351 352 351 352 352 352 352 351 350 352 354 356 356 354 352 346 334 330 321 318 320 324 330 340 343 341 341 338 331 325 325 319 302 320 318
301 307 266 253 242 299 338 344 346 347 347 347 347 347 348 347 347 349 351 353 354 354 355 353 349 339 333 328 319 319 323 328 340 342 344 345 344 334 333 325 314 319 325 325
302 318 306 195 217 358 347 346 345 346 345 343 344 345 345 345 346 348 350 351 351 352 355 352 347 340 332 337 321 319 322 327 338 344 346 348 348 338 327 326 331 333 330 328
320 348 35 74 32 358 346 345 344 343 342 344 345 344 344 345 347 348 349 349 350 351 353 351 345 338 331 335 326 318 323 327 337 346 349 352 352 332 333 338 341 335 334 322
247 360 35 19 359 348 345 344 342 340 342 344 344 345 345 346 348 349 349 350 352 353 351 349 345 337 330 331 323 320 322 326 337 347 350 356 352 327 303 8 3 358 315 319
184 194 357 351 345 342 340 340 339 339 340 341 343 344 345 348 349 350 351 348 350 352 350 348 345 335 327 327 324 317 319 323 334 351 353 360 324 298 280 21 355 283 358 339
112 15 348 342 339 340 342 339 336 336 337 339 341 344 347 347 348 348 348 351 351 351 349 346 344 333 330 333 325 316 317 322 333 347 346 3 304 290 280 324 28 32 11 9
22 350 344 345 345 340 336 336 335 337 338 341 344 346 347 346 347 348 349 349 349 350 349 344 341 332 332 330 326 316 317 321 330 336 340 337 306 298 282 311 329 330 342 349
353 350 345 340 336 335 336 337 338 340 342 343 344 346 347 348 347 346 347 348 350 350 347 343 342 334 333 326 327 316 316 320 326 325 333 298 305 301 294 288 1 352 359 9
344 338 337 335 334 334 334 336 337 340 340 340 342 343 344 345 345 346 346 347 348 348 345 339 339 334 330 327 326 316 315 316 318 321 319 307 310 307 303 302 62 70 144 210
335 333 332 332 334 335 336 337 338 338 339 340 339 340 342 343 344 344 344 345 344 341 337 335 334 330 325 327 327 319 313 316 314 313 314 314 311 312 316 314 265 101 256 274